| time (UTC) | temp F | wind direction | speed MPH | gust MPH | rain 1hr in | rain 24hr in | rain mn in | humidity % | barometer mb |
| 20260905201304 | 83 | 65 | 2.0 | 3.0 | 0.00 | 0.00 | 0.00 | 60 | 1008.4 |
| 20260905200304 | 82 | 6 | 3.0 | 9.0 | 0.00 | 0.00 | 0.00 | 61 | 1008.5 |
| 20260905195804 | 82 | 20 | 8.0 | 12.0 | 0.00 | 0.00 | 0.00 | 61 | 1008.5 |
| 20260905194803 | 82 | 56 | 2.0 | 3.0 | 0.00 | 0.00 | 0.00 | 59 | 1008.6 |
| 20260905194303 | 82 | 6 | 4.0 | 6.0 | 0.00 | 0.00 | 0.00 | 61 | 1008.6 |
| 20260905193804 | 82 | 69 | 1.0 | 3.0 | 0.00 | 0.00 | 0.00 | 61 | 1008.6 |
| 20260905193304 | 82 | 76 | 3.0 | 7.0 | 0.00 | 0.00 | 0.00 | 60 | 1008.7 |
| 20260905192803 | 82 | 46 | 3.0 | 7.0 | 0.00 | 0.00 | 0.00 | 61 | 1008.8 |
| 20260905192306 | 83 | 339 | 2.0 | 9.0 | 0.00 | 0.00 | 0.00 | 60 | 1008.8 |
| 20260905191804 | 83 | 6 | 2.0 | 8.0 | 0.00 | 0.00 | 0.00 | 60 | 1008.8 |
| 20260905191304 | 83 | 322 | 2.0 | 6.0 | 0.00 | 0.00 | 0.00 | 60 | 1008.9 |
| 20260905190804 | 83 | 352 | 5.0 | 10.0 | 0.00 | 0.00 | 0.00 | 60 | 1008.9 |
| 20260905190304 | 83 | 34 | 3.0 | 8.0 | 0.00 | 0.00 | 0.00 | 58 | 1009.0 |
| 20260905185804 | 83 | 36 | 2.0 | 7.0 | 0.00 | 0.00 | 0.00 | 58 | 1009.0 |
| 20260905185306 | 83 | 13 | 5.0 | 8.0 | 0.00 | 0.00 | 0.00 | 60 | 1009.1 |
| 20260905184804 | 83 | 208 | 1.0 | 6.0 | 0.00 | 0.00 | 0.00 | 61 | 1009.2 |
| 20260905184303 | 82 | 64 | 2.0 | 8.0 | 0.00 | 0.00 | 0.00 | 60 | 1009.3 |
| 20260905183803 | 82 | 18 | 3.0 | 7.0 | 0.00 | 0.00 | 0.00 | 62 | 1009.4 |
| 20260905183304 | 82 | 300 | 1.0 | 3.0 | 0.00 | 0.00 | 0.00 | 62 | 1009.4 |
| 20260905182804 | 82 | 30 | 2.0 | 7.0 | 0.00 | 0.00 | 0.00 | 61 | 1009.5 |
| 20260905182306 | 81 | 310 | 4.0 | 6.0 | 0.00 | 0.00 | 0.00 | 63 | 1009.6 |
| 20260905181804 | 81 | 352 | 2.0 | 6.0 | 0.00 | 0.00 | 0.00 | 63 | 1009.6 |
| 20260905181304 | 81 | 14 | 5.0 | 8.0 | 0.00 | 0.00 | 0.00 | 65 | 1009.7 |
| 20260905180804 | 81 | 349 | 3.0 | 5.0 | 0.00 | 0.00 | 0.00 | 65 | 1009.7 |
| 20260905180304 | 81 | 329 | 4.0 | 7.0 | 0.00 | 0.00 | 0.00 | 67 | 1009.7 |
| 20260905175803 | 80 | 358 | 4.0 | 7.0 | 0.00 | 0.00 | 0.00 | 68 | 1009.7 |
| 20260905175306 | 80 | 7 | 2.0 | 5.0 | 0.00 | 0.00 | 0.00 | 69 | 1009.7 |
| 20260905174804 | 80 | 3 | 4.0 | 8.0 | 0.00 | 0.00 | 0.00 | 68 | 1009.7 |
| 20260905174304 | 80 | 10 | 3.0 | 8.0 | 0.00 | 0.00 | 0.00 | 68 | 1009.8 |
| 20260905173804 | 80 | 4 | 4.0 | 7.0 | 0.00 | 0.00 | 0.00 | 69 | 1009.8 |
| 20260905173304 | 80 | 10 | 4.0 | 9.0 | 0.00 | 0.00 | 0.00 | 68 | 1009.9 |
| 20260905172804 | 80 | 40 | 2.0 | 9.0 | 0.00 | 0.00 | 0.00 | 68 | 1009.9 |
| 20260905172305 | 80 | 350 | 5.0 | 8.0 | 0.00 | 0.00 | 0.00 | 69 | 1010.0 |
| 20260905171304 | 81 | 37 | 5.0 | 9.0 | 0.00 | 0.00 | 0.00 | 69 | 1009.9 |
| 20260905170803 | 81 | 66 | 5.0 | 7.0 | 0.00 | 0.00 | 0.00 | 68 | 1010.0 |
| 20260905170304 | 81 | 23 | 3.0 | 6.0 | 0.00 | 0.00 | 0.00 | 68 | 1010.0 |
| 20260905165804 | 81 | 12 | 6.0 | 9.0 | 0.00 | 0.00 | 0.00 | 70 | 1010.0 |
| 20260905165306 | 81 | 20 | 5.0 | 7.0 | 0.00 | 0.00 | 0.00 | 68 | 1010.0 |
| 20260905164304 | 81 | 79 | 2.0 | 6.0 | 0.00 | 0.00 | 0.00 | 67 | 1010.0 |
| 20260905163804 | 81 | 344 | 4.0 | 6.0 | 0.00 | 0.00 | 0.00 | 68 | 1009.9 |
| 20260905163304 | 81 | 28 | 4.0 | 8.0 | 0.00 | 0.00 | 0.00 | 68 | 1010.1 |
| 20260905162306 | 81 | 75 | 0.0 | 3.0 | 0.00 | 0.00 | 0.00 | 67 | 1010.3 |
| 20260905161804 | 81 | 10 | 2.0 | 6.0 | 0.00 | 0.00 | 0.00 | 67 | 1010.3 |
| 20260905161303 | 81 | 7 | 5.0 | 8.0 | 0.00 | 0.00 | 0.00 | 68 | 1010.4 |
| 20260905160804 | 81 | 1 | 2.0 | 6.0 | 0.00 | 0.00 | 0.00 | 67 | 1010.4 |
| 20260905155804 | 80 | 9 | 3.0 | 8.0 | 0.00 | 0.00 | 0.00 | 67 | 1010.5 |
| 20260905155306 | 80 | 11 | 6.0 | 10.0 | 0.00 | 0.00 | 0.00 | 67 | 1010.5 |
| 20260905154804 | 80 | 23 | 3.0 | 5.0 | 0.00 | 0.00 | 0.00 | 66 | 1010.6 |
| 20260905154304 | 80 | 25 | 4.0 | 7.0 | 0.00 | 0.00 | 0.00 | 67 | 1010.7 |
| 20260905153804 | 80 | 23 | 4.0 | 7.0 | 0.00 | 0.00 | 0.00 | 67 | 1010.7 |
| 20260905152804 | 80 | 8 | 3.0 | 7.0 | 0.00 | 0.00 | 0.00 | 65 | 1010.8 |
| 20260905152306 | 80 | 50 | 3.0 | 8.0 | 0.00 | 0.00 | 0.00 | 65 | 1010.8 |
| 20260905151804 | 81 | 11 | 4.0 | 5.0 | 0.00 | 0.00 | 0.00 | 66 | 1010.8 |
| 20260905151303 | 81 | 14 | 5.0 | 8.0 | 0.00 | 0.00 | 0.00 | 65 | 1010.7 |
| 20260905150804 | 81 | 12 | 5.0 | 8.0 | 0.00 | 0.00 | 0.00 | 65 | 1010.7 |
| 20260905150304 | 81 | 10 | 3.0 | 7.0 | 0.00 | 0.00 | 0.00 | 67 | 1010.6 |
| 20260905145804 | 80 | 42 | 4.0 | 7.0 | 0.00 | 0.00 | 0.00 | 66 | 1010.6 |
| 20260905144804 | 80 | 20 | 5.0 | 9.0 | 0.00 | 0.00 | 0.00 | 67 | 1010.6 |
| 20260905143803 | 80 | 8 | 5.0 | 10.0 | 0.00 | 0.00 | 0.00 | 67 | 1010.5 |
| 20260905143304 | 80 | 73 | 3.0 | 7.0 | 0.00 | 0.00 | 0.00 | 68 | 1010.4 |
| 20260905142306 | 79 | 60 | 2.0 | 5.0 | 0.00 | 0.00 | 0.00 | 69 | 1010.2 |
| 20260905141804 | 79 | 24 | 4.0 | 9.0 | 0.00 | 0.00 | 0.00 | 70 | 1010.1 |
| 20260905140803 | 79 | 72 | 3.0 | 6.0 | 0.00 | 0.00 | 0.00 | 71 | 1010.2 |
| 20260905140304 | 79 | 60 | 4.0 | 8.0 | 0.00 | 0.00 | 0.00 | 72 | 1010.0 |
| 20260905135804 | 78 | 12 | 3.0 | 7.0 | 0.00 | 0.00 | 0.00 | 71 | 1010.0 |
| 20260905134804 | 78 | 44 | 3.0 | 6.0 | 0.00 | 0.00 | 0.00 | 74 | 1010.2 |
| 20260905134304 | 78 | 46 | 3.0 | 5.0 | 0.00 | 0.00 | 0.00 | 74 | 1010.2 |
| 20260905133804 | 78 | 26 | 2.0 | 6.0 | 0.00 | 0.00 | 0.00 | 74 | 1010.2 |
| 20260905132804 | 78 | 62 | 4.0 | 7.0 | 0.00 | 0.00 | 0.00 | 73 | 1010.3 |
| 20260905132306 | 78 | 24 | 5.0 | 10.0 | 0.00 | 0.00 | 0.00 | 74 | 1010.3 |
| 20260905131804 | 78 | 11 | 3.0 | 6.0 | 0.00 | 0.00 | 0.00 | 75 | 1010.3 |
| 20260905131304 | 78 | 9 | 4.0 | 8.0 | 0.00 | 0.00 | 0.00 | 74 | 1010.2 |
| 20260905130804 | 78 | 40 | 5.0 | 10.0 | 0.00 | 0.00 | 0.00 | 74 | 1010.1 |
| 20260905125306 | 78 | 51 | 5.0 | 9.0 | 0.00 | 0.00 | 0.00 | 77 | 1010.0 |
| 20260905124304 | 77 | 26 | 5.0 | 7.0 | 0.00 | 0.00 | 0.00 | 79 | 1009.8 |
| 20260905123804 | 76 | 52 | 5.0 | 9.0 | 0.00 | 0.00 | 0.00 | 81 | 1009.7 |
| 20260905123303 | 75 | 68 | 5.0 | 9.0 | 0.00 | 0.00 | 0.00 | 83 | 1009.7 |
| 20260905122804 | 75 | 9 | 7.0 | 12.0 | 0.00 | 0.00 | 0.00 | 84 | 1009.8 |
| 20260905121804 | 74 | 2 | 2.0 | 12.0 | 0.00 | 0.00 | 0.00 | 88 | 1009.8 |
| 20260905120804 | 74 | 20 | 6.0 | 10.0 | 0.00 | 0.00 | 0.00 | 90 | 1009.8 |
| 20260905120304 | 74 | 19 | 5.0 | 10.0 | 0.00 | 0.01 | 0.00 | 91 | 1009.8 |
| 20260905115803 | 74 | 17 | 6.0 | 9.0 | 0.00 | 0.01 | 0.00 | 92 | 1009.8 |
| 20260905115306 | 73 | 28 | 6.0 | 12.0 | 0.00 | 0.01 | 0.00 | 92 | 1009.7 |
| 20260905114804 | 73 | 1 | 5.0 | 10.0 | 0.00 | 0.01 | 0.00 | 93 | 1009.6 |
| 20260905114304 | 73 | 9 | 6.0 | 9.0 | 0.00 | 0.01 | 0.00 | 93 | 1009.5 |
| 20260905113804 | 73 | 352 | 6.0 | 9.0 | 0.00 | 0.01 | 0.00 | 93 | 1009.6 |
| 20260905113304 | 73 | 352 | 5.0 | 9.0 | 0.00 | 0.01 | 0.00 | 93 | 1009.4 |
| 20260905112804 | 73 | 6 | 6.0 | 8.0 | 0.00 | 0.01 | 0.00 | 93 | 1009.4 |
| 20260905112305 | 73 | 6 | 4.0 | 7.0 | 0.00 | 0.01 | 0.00 | 93 | 1009.4 |
| 20260905111804 | 73 | 2 | 5.0 | 8.0 | 0.00 | 0.01 | 0.00 | 93 | 1009.2 |
| 20260905110804 | 72 | 5 | 4.0 | 6.0 | 0.00 | 0.01 | 0.00 | 93 | 1009.1 |
| 20260905110305 | 72 | 354 | 3.0 | 6.0 | 0.00 | 0.01 | 0.00 | 93 | 1009.1 |
| 20260905105804 | 72 | 328 | 3.0 | 5.0 | 0.00 | 0.01 | 0.00 | 93 | 1009.1 |
| 20260905105306 | 72 | 326 | 2.0 | 3.0 | 0.00 | 0.01 | 0.00 | 93 | 1009.1 |
| 20260905104804 | 72 | 322 | 3.0 | 6.0 | 0.00 | 0.01 | 0.00 | 93 | 1009.1 |
| 20260905104304 | 72 | 294 | 2.0 | 5.0 | 0.00 | 0.01 | 0.00 | 93 | 1009.0 |
| 20260905103804 | 72 | 314 | 2.0 | 5.0 | 0.00 | 0.01 | 0.00 | 93 | 1008.9 |
| 20260905103304 | 72 | 318 | 1.0 | 3.0 | 0.00 | 0.01 | 0.00 | 92 | 1008.8 |
| 20260905102804 | 73 | 322 | 2.0 | 3.0 | 0.00 | 0.01 | 0.00 | 93 | 1008.8 |
| 20260905102306 | 73 | 322 | 2.0 | 6.0 | 0.00 | 0.01 | 0.00 | 92 | 1008.8 |
| 20260905101804 | 73 | 354 | 3.0 | 6.0 | 0.00 | 0.01 | 0.00 | 92 | 1008.8 |
| 20260905100304 | 73 | 75 | 2.0 | 3.0 | 0.00 | 0.01 | 0.00 | 92 | 1008.7 |
| 20260905095804 | 73 | 75 | 2.0 | 3.0 | 0.00 | 0.01 | 0.00 | 92 | 1008.7 |
| 20260905095305 | 73 | 30 | 1.0 | 3.0 | 0.00 | 0.01 | 0.00 | 92 | 1008.6 |
| 20260905093804 | 73 | 324 | 3.0 | 6.0 | 0.00 | 0.02 | 0.00 | 92 | 1008.4 |
| 20260905092803 | 73 | 311 | 3.0 | 7.0 | 0.00 | 0.02 | 0.00 | 92 | 1008.4 |
| 20260905091804 | 73 | 315 | 3.0 | 5.0 | 0.00 | 0.02 | 0.00 | 91 | 1008.5 |
| 20260905091304 | 73 | 315 | 2.0 | 3.0 | 0.00 | 0.02 | 0.00 | 91 | 1008.5 |
| 20260905090804 | 73 | 315 | 1.0 | 3.0 | 0.00 | 0.02 | 0.00 | 91 | 1008.4 |
| 20260905090304 | 73 | 315 | 1.0 | 3.0 | 0.00 | 0.02 | 0.00 | 91 | 1008.4 |
| 20260905085804 | 73 | 315 | 1.0 | 2.0 | 0.00 | 0.02 | 0.00 | 91 | 1008.3 |
| 20260905085306 | 73 | 315 | 2.0 | 3.0 | 0.00 | 0.02 | 0.00 | 91 | 1008.4 |
| 20260905084304 | 73 | 346 | 3.0 | 6.0 | 0.00 | 0.02 | 0.00 | 91 | 1008.3 |
| 20260905083803 | 73 | 306 | 2.0 | 5.0 | 0.00 | 0.02 | 0.00 | 91 | 1008.4 |
| 20260905083304 | 74 | 316 | 2.0 | 3.0 | 0.00 | 0.02 | 0.00 | 91 | 1008.3 |
| 20260905082804 | 74 | 307 | 2.0 | 5.0 | 0.00 | 0.02 | 0.00 | 91 | 1008.4 |
| 20260905082307 | 74 | 314 | 3.0 | 5.0 | 0.00 | 0.02 | 0.00 | 91 | 1008.5 |
| 20260905081304 | 74 | 316 | 2.0 | 5.0 | 0.00 | 0.02 | 0.00 | 91 | 1008.6 |
| 20260905080804 | 74 | 307 | 1.0 | 6.0 | 0.00 | 0.02 | 0.00 | 90 | 1008.6 |
| 20260905080304 | 74 | 298 | 2.0 | 3.0 | 0.00 | 0.02 | 0.00 | 90 | 1008.6 |
| 20260905075804 | 74 | 281 | 2.0 | 3.0 | 0.00 | 0.02 | 0.00 | 90 | 1008.5 |
| 20260905075306 | 74 | 331 | 1.0 | 3.0 | 0.00 | 0.02 | 0.00 | 90 | 1008.5 |
| 20260905074804 | 74 | 305 | 2.0 | 5.0 | 0.00 | 0.02 | 0.00 | 90 | 1008.5 |
| 20260905074304 | 74 | 299 | 2.0 | 6.0 | 0.00 | 0.02 | 0.00 | 90 | 1008.5 |
| 20260905073304 | 74 | 316 | 2.0 | 6.0 | 0.00 | 0.02 | 0.00 | 90 | 1008.6 |
| 20260905072306 | 74 | 308 | 3.0 | 8.0 | 0.00 | 0.02 | 0.00 | 90 | 1008.6 |
| 20260905071804 | 74 | 326 | 4.0 | 8.0 | 0.00 | 0.02 | 0.00 | 90 | 1008.6 |
| 20260905071303 | 74 | 311 | 4.0 | 9.0 | 0.00 | 0.02 | 0.00 | 90 | 1008.8 |
| 20260905070304 | 74 | 296 | 6.0 | 10.0 | 0.00 | 0.02 | 0.00 | 90 | 1008.8 |
| 20260905065803 | 75 | 307 | 6.0 | 10.0 | 0.00 | 0.02 | 0.00 | 90 | 1008.8 |
| 20260905065306 | 75 | 296 | 7.0 | 12.0 | 0.00 | 0.02 | 0.00 | 90 | 1008.9 |
| 20260905064804 | 75 | 306 | 7.0 | 12.0 | 0.00 | 0.02 | 0.00 | 90 | 1008.9 |
| 20260905064304 | 75 | 289 | 8.0 | 15.0 | 0.00 | 0.02 | 0.00 | 90 | 1009.0 |
| 20260905063803 | 75 | 284 | 7.0 | 14.0 | 0.00 | 0.02 | 0.00 | 90 | 1009.1 |
| 20260905063303 | 75 | 296 | 8.0 | 15.0 | 0.00 | 0.02 | 0.00 | 91 | 1009.2 |
| 20260905062804 | 75 | 296 | 9.0 | 14.0 | 0.00 | 0.02 | 0.00 | 91 | 1009.2 |
| 20260905062305 | 75 | 301 | 6.0 | 12.0 | 0.00 | 0.02 | 0.00 | 91 | 1009.2 |
| 20260905061304 | 75 | 298 | 7.0 | 13.0 | 0.00 | 0.02 | 0.00 | 90 | 1009.2 |
| 20260905060804 | 75 | 301 | 7.0 | 13.0 | 0.00 | 0.02 | 0.00 | 90 | 1009.2 |
| 20260905060304 | 75 | 296 | 7.0 | 12.0 | 0.00 | 0.02 | 0.00 | 90 | 1009.1 |
| 20260905055803 | 75 | 304 | 9.0 | 12.0 | 0.00 | 0.02 | 0.00 | 90 | 1009.2 |
| 20260905054804 | 75 | 301 | 7.0 | 12.0 | 0.00 | 0.02 | 0.00 | 90 | 1009.3 |
| 20260905054304 | 75 | 307 | 5.0 | 12.0 | 0.00 | 0.02 | 0.00 | 90 | 1009.3 |
| 20260905053804 | 76 | 291 | 7.0 | 13.0 | 0.00 | 0.02 | 0.00 | 90 | 1009.3 |
| 20260905053303 | 76 | 307 | 5.0 | 12.0 | 0.00 | 0.02 | 0.00 | 90 | 1009.4 |
| 20260905052804 | 76 | 291 | 6.0 | 12.0 | 0.00 | 0.02 | 0.00 | 90 | 1009.5 |
| 20260905051803 | 76 | 298 | 7.0 | 12.0 | 0.00 | 0.02 | 0.00 | 90 | 1009.6 |
| 20260905051303 | 76 | 303 | 6.0 | 14.0 | 0.00 | 0.02 | 0.00 | 90 | 1009.7 |
| 20260905050804 | 76 | 299 | 7.0 | 10.0 | 0.00 | 0.02 | 0.00 | 90 | 1009.7 |
| 20260905050304 | 76 | 299 | 5.0 | 10.0 | 0.00 | 0.02 | 0.00 | 90 | 1009.8 |
| 20260905045804 | 76 | 299 | 5.0 | 9.0 | 0.00 | 0.02 | 0.00 | 90 | 1009.9 |
| 20260905045306 | 76 | 301 | 4.0 | 12.0 | 0.00 | 0.02 | 0.00 | 90 | 1009.9 |
| 20260905044805 | 76 | 289 | 5.0 | 12.0 | 0.00 | 0.02 | 0.00 | 90 | 1009.8 |
| 20260905043803 | 76 | 295 | 7.0 | 12.0 | 0.00 | 0.02 | 0.00 | 90 | 1009.9 |
| 20260905043303 | 77 | 295 | 7.0 | 10.0 | 0.00 | 0.02 | 0.00 | 90 | 1010.0 |
| 20260905042803 | 77 | 297 | 6.0 | 12.0 | 0.00 | 0.02 | 0.00 | 90 | 1009.8 |
| 20260905042307 | 77 | 298 | 6.0 | 10.0 | 0.00 | 0.03 | 0.00 | 90 | 1009.8 |
| 20260905041304 | 77 | 298 | 5.0 | 9.0 | 0.00 | 0.05 | 0.00 | 89 | 1009.8 |
| 20260905040804 | 77 | 289 | 5.0 | 12.0 | 0.00 | 0.05 | 0.00 | 89 | 1010.0 |
| 20260905040303 | 77 | 293 | 6.0 | 9.0 | 0.00 | 0.05 | 0.00 | 89 | 1010.0 |
| 20260905035803 | 77 | 283 | 4.0 | 7.0 | 0.00 | 0.05 | 0.05 | 89 | 1009.9 |
| 20260905035306 | 77 | 283 | 4.0 | 8.0 | 0.00 | 0.05 | 0.05 | 89 | 1010.0 |
| 20260905034803 | 77 | 285 | 4.0 | 7.0 | 0.00 | 0.05 | 0.05 | 89 | 1010.1 |
| 20260905034304 | 77 | 286 | 2.0 | 6.0 | 0.00 | 0.05 | 0.05 | 88 | 1010.1 |
| 20260905032804 | 78 | 284 | 5.0 | 9.0 | 0.00 | 0.05 | 0.05 | 88 | 1010.1 |
| 20260905032306 | 78 | 287 | 5.0 | 8.0 | 0.00 | 0.05 | 0.05 | 88 | 1010.1 |
| 20260905031804 | 78 | 264 | 4.0 | 9.0 | 0.00 | 0.05 | 0.05 | 87 | 1010.1 |
| 20260905031304 | 78 | 239 | 3.0 | 9.0 | 0.00 | 0.05 | 0.05 | 87 | 1010.1 |
| 20260905030804 | 78 | 238 | 2.0 | 6.0 | 0.00 | 0.05 | 0.05 | 87 | 1010.1 |
| 20260905025804 | 78 | 241 | 5.0 | 9.0 | 0.00 | 0.05 | 0.05 | 86 | 1010.1 |
| 20260905025306 | 78 | 236 | 2.0 | 7.0 | 0.00 | 0.05 | 0.05 | 86 | 1010.1 |
| 20260905024804 | 78 | 240 | 3.0 | 5.0 | 0.00 | 0.05 | 0.05 | 86 | 1010.2 |
| 20260905024304 | 79 | 232 | 2.0 | 6.0 | 0.00 | 0.05 | 0.05 | 86 | 1010.1 |
| 20260905023804 | 79 | 231 | 2.0 | 5.0 | 0.00 | 0.05 | 0.05 | 86 | 1010.0 |
| 20260905023304 | 79 | 232 | 3.0 | 5.0 | 0.00 | 0.05 | 0.05 | 85 | 1010.1 |
| 20260905022804 | 79 | 243 | 2.0 | 5.0 | 0.00 | 0.05 | 0.05 | 85 | 1010.1 |
| 20260905022306 | 79 | 243 | 2.0 | 3.0 | 0.00 | 0.05 | 0.05 | 85 | 1010.0 |
| 20260905021804 | 79 | 243 | 1.0 | 3.0 | 0.00 | 0.05 | 0.05 | 85 | 1009.9 |
| 20260905021304 | 79 | 253 | 1.0 | 3.0 | 0.00 | 0.05 | 0.05 | 84 | 1009.9 |
| 20260905020804 | 79 | 253 | 2.0 | 3.0 | 0.00 | 0.05 | 0.05 | 84 | 1010.0 |
| 20260905020304 | 79 | 272 | 1.0 | 3.0 | 0.00 | 0.05 | 0.05 | 84 | 1010.0 |
| 20260905015804 | 79 | 243 | 2.0 | 5.0 | 0.00 | 0.05 | 0.05 | 84 | 1010.0 |
| 20260905015306 | 80 | 256 | 1.0 | 3.0 | 0.00 | 0.05 | 0.05 | 83 | 1010.0 |
| 20260905014804 | 80 | 247 | 2.0 | 5.0 | 0.00 | 0.05 | 0.05 | 83 | 1009.8 |
| 20260905014304 | 80 | 219 | 2.0 | 3.0 | 0.00 | 0.05 | 0.05 | 83 | 1009.8 |
| 20260905013804 | 80 | 281 | 2.0 | 3.0 | 0.00 | 0.05 | 0.05 | 83 | 1009.8 |
| 20260905013303 | 80 | 275 | 3.0 | 6.0 | 0.00 | 0.05 | 0.05 | 82 | 1009.7 |
| 20260905012803 | 80 | 263 | 3.0 | 7.0 | 0.00 | 0.05 | 0.05 | 82 | 1009.5 |
| 20260905012306 | 80 | 285 | 2.0 | 6.0 | 0.00 | 0.05 | 0.05 | 81 | 1009.6 |
| 20260905011804 | 80 | 288 | 3.0 | 6.0 | 0.00 | 0.05 | 0.05 | 81 | 1009.4 |
| 20260905011304 | 81 | 283 | 3.0 | 7.0 | 0.00 | 0.05 | 0.05 | 80 | 1009.4 |
| 20260905010803 | 81 | 293 | 2.0 | 3.0 | 0.00 | 0.05 | 0.05 | 80 | 1009.4 |
| 20260905010303 | 81 | 250 | 2.0 | 3.0 | 0.00 | 0.05 | 0.05 | 80 | 1009.4 |
| 20260905005803 | 81 | 250 | 2.0 | 3.0 | 0.00 | 0.05 | 0.05 | 80 | 1009.4 |
| 20260905005306 | 81 | 250 | 2.0 | 3.0 | 0.00 | 0.05 | 0.05 | 80 | 1009.3 |
| 20260905004803 | 81 | 259 | 2.0 | 5.0 | 0.00 | 0.05 | 0.05 | 79 | 1009.4 |
| 20260905004304 | 81 | 273 | 1.0 | 3.0 | 0.00 | 0.05 | 0.05 | 79 | 1009.4 |
| 20260905003804 | 81 | 273 | 1.0 | 2.0 | 0.00 | 0.05 | 0.05 | 79 | 1009.5 |
| 20260905003304 | 81 | 273 | 2.0 | 3.0 | 0.00 | 0.05 | 0.05 | 78 | 1009.4 |
| 20260905001803 | 82 | 273 | 2.0 | 3.0 | 0.00 | 0.05 | 0.05 | 78 | 1009.3 |
| 20260905001303 | 82 | 273 | 1.0 | 3.0 | 0.00 | 0.05 | 0.05 | 77 | 1009.3 |
| 20260905000804 | 82 | 273 | 1.0 | 2.0 | 0.00 | 0.05 | 0.05 | 77 | 1009.4 |
| 20260904235306 | 83 | 273 | 2.0 | 3.0 | 0.00 | 0.05 | 0.05 | 76 | 1009.1 |
| 20260904234803 | 83 | 273 | 0.0 | 1.0 | 0.00 | 0.05 | 0.05 | 75 | 1009.2 |
| 20260904234304 | 83 | 273 | 1.0 | 3.0 | 0.00 | 0.05 | 0.05 | 75 | 1009.4 |
| 20260904233804 | 83 | 273 | 1.0 | 3.0 | 0.00 | 0.05 | 0.05 | 75 | 1009.4 |
| 20260904232804 | 83 | 273 | 2.0 | 3.0 | 0.00 | 0.05 | 0.05 | 74 | 1009.5 |
| 20260904232306 | 84 | 273 | 0.0 | 0.0 | 0.00 | 0.05 | 0.05 | 74 | 1009.5 |
| 20260904231304 | 84 | 273 | 1.0 | 3.0 | 0.00 | 0.05 | 0.05 | 73 | 1009.6 |
| 20260904230304 | 84 | 273 | 1.0 | 3.0 | 0.00 | 0.05 | 0.05 | 72 | 1009.5 |
| 20260904225804 | 84 | 290 | 2.0 | 3.0 | 0.00 | 0.05 | 0.05 | 72 | 1009.5 |
| 20260904225305 | 84 | 291 | 2.0 | 6.0 | 0.00 | 0.05 | 0.05 | 72 | 1009.5 |
| 20260904224803 | 84 | 291 | 2.0 | 6.0 | 0.00 | 0.05 | 0.05 | 71 | 1009.4 |
| 20260904224303 | 84 | 259 | 1.0 | 3.0 | 0.00 | 0.05 | 0.05 | 71 | 1009.3 |
| 20260904223803 | 85 | 243 | 2.0 | 3.0 | 0.00 | 0.05 | 0.05 | 71 | 1009.3 |
| 20260904223304 | 85 | 243 | 1.0 | 3.0 | 0.00 | 0.05 | 0.05 | 70 | 1009.3 |
| 20260904222803 | 85 | 243 | 2.0 | 3.0 | 0.00 | 0.05 | 0.05 | 70 | 1009.4 |
| 20260904222306 | 85 | 243 | 1.0 | 3.0 | 0.00 | 0.05 | 0.05 | 70 | 1009.5 |
| 20260904221804 | 85 | 243 | 0.0 | 2.0 | 0.00 | 0.05 | 0.05 | 70 | 1009.6 |
| 20260904221303 | 85 | 243 | 0.0 | 1.0 | 0.00 | 0.05 | 0.05 | 69 | 1009.6 |
| 20260904220804 | 85 | 243 | 0.0 | 2.0 | 0.00 | 0.05 | 0.05 | 69 | 1009.8 |
| 20260904220303 | 85 | 243 | 1.0 | 3.0 | 0.00 | 0.05 | 0.05 | 69 | 1010.0 |
| 20260904215804 | 85 | 260 | 1.0 | 2.0 | 0.00 | 0.05 | 0.05 | 68 | 1010.0 |
| 20260904215305 | 85 | 256 | 1.0 | 3.0 | 0.00 | 0.05 | 0.05 | 68 | 1009.9 |
| 20260904214804 | 85 | 289 | 2.0 | 3.0 | 0.00 | 0.05 | 0.05 | 68 | 1010.0 |
| 20260904214304 | 86 | 290 | 1.0 | 3.0 | 0.00 | 0.05 | 0.05 | 68 | 1010.1 |
| 20260904213304 | 86 | 268 | 2.0 | 3.0 | 0.00 | 0.05 | 0.05 | 66 | 1010.1 |
| 20260904212803 | 86 | 320 | 1.0 | 3.0 | 0.00 | 0.05 | 0.05 | 66 | 1010.1 |
| 20260904212306 | 86 | 281 | 2.0 | 3.0 | 0.00 | 0.05 | 0.05 | 65 | 1010.1 |
| 20260904211803 | 86 | 275 | 2.0 | 3.0 | 0.00 | 0.05 | 0.05 | 65 | 1010.1 |
| 20260904211303 | 86 | 273 | 1.0 | 3.0 | 0.00 | 0.05 | 0.05 | 64 | 1010.0 |
| 20260904210803 | 87 | 266 | 1.0 | 3.0 | 0.00 | 0.05 | 0.05 | 64 | 1010.0 |
| 20260904210304 | 87 | 316 | 2.0 | 3.0 | 0.00 | 0.05 | 0.05 | 64 | 1010.2 |
| 20260904205804 | 87 | 335 | 1.0 | 6.0 | 0.00 | 0.05 | 0.05 | 64 | 1010.3 |
| 20260904205305 | 87 | 327 | 3.0 | 7.0 | 0.00 | 0.05 | 0.05 | 63 | 1010.3 |
| 20260904204803 | 87 | 275 | 1.0 | 6.0 | 0.00 | 0.05 | 0.05 | 62 | 1010.4 |
| 20260904204304 | 88 | 278 | 2.0 | 6.0 | 0.00 | 0.05 | 0.05 | 62 | 1010.4 |
| 20260904203303 | 89 | 300 | 6.0 | 9.0 | 0.00 | 0.05 | 0.05 | 60 | 1010.5 |
| 20260904202803 | 89 | 291 | 2.0 | 8.0 | 0.00 | 0.05 | 0.05 | 61 | 1010.6 |
| 20260904202306 | 89 | 303 | 3.0 | 8.0 | 0.00 | 0.05 | 0.05 | 60 | 1010.7 |
| 20260904201803 | 90 | 286 | 2.0 | 7.0 | 0.00 | 0.05 | 0.05 | 59 | 1010.6 |